#timestamp,LO_Frequency,Hit 
1499295615.1,286047008.7,N
1499295635.9,286047010.1,N
1499295655.7,286047007.9,N
1499295675.5,286047007.9,N
1499295695.4,286047009.1,N
1499295715.2,286047006.1,N
1499295735.1,286047006.5,N
1499295736.0,286047006.5,N
1499295755.8,286047006.9,N
1499295775.6,286047005.0,N
1499295795.5,286047006.1,N
1499295815.3,286047007.4,N
1499295835.1,286047007.2,N
1499295855.9,286047006.3,N
1499295875.7,286047006.6,N
1499295895.6,286047008.0,N
1499295915.4,286047009.1,N
1499295935.2,286047008.9,N
1499295955.1,286047006.2,N
1499295956.0,286047006.2,N
1499295975.8,286047004.5,N
1499295995.7,286047006.4,N
1499296015.5,286047007.2,N
1499296035.3,286047005.1,N
1499296055.2,286047006.1,N
1499296075.0,286047006.1,N
1499296075.9,286047006.1,N
1499296095.7,286047007.2,N
1499296115.6,286047007.1,N
1499296135.4,286047006.3,N
1499296155.3,286047007.4,N
1499296175.1,286047007.6,N
1499296176.0,286047007.6,N
1499296195.8,286047007.1,N
1499296215.7,286047006.4,N
1499296235.5,286047006.1,N
1499296255.4,286047006.1,N
1499296275.2,286047008.2,N
1499296295.0,286047008.2,N
1499296295.9,286047008.2,N
1499296315.8,286047009.2,N
1499296335.6,286047008.0,N
1499296355.5,286047007.9,N
1499296375.3,286047007.0,N
1499296395.1,286047008.2,N
1499296415.9,286047008.7,N
1499296435.7,286047008.7,N
1499296455.5,286047006.8,N
1499296475.4,286047004.6,N
1499296495.2,286047004.8,N
1499296515.1,286047006.4,N
1499296516.0,286047006.4,N
1499296535.8,286047006.7,N
1499296555.6,286047006.7,N
1499296575.5,286047007.2,N
1499296595.3,286047008.8,N
1499296615.2,286047008.9,N
1499296635.9,286047009.2,N
1499296655.7,286047008.3,N
1499296675.6,286047008.1,N
1499296695.4,286047008.8,N
1499296715.2,286047007.7,N
1499296735.1,286047009.8,N
1499296736.0,286047009.8,N
1499296755.8,286047006.3,N
1499296775.7,286047006.1,N
1499296795.5,286047007.1,N
1499296815.3,286047006.2,N
1499296835.2,286047007.7,N
1499296855.0,286047009.4,N
1499296855.9,286047009.4,N
1499296875.8,286047009.4,N
1499296895.6,286047010.2,N
1499296915.4,286047008.0,N
1499296935.3,286047008.9,N
1499296955.1,286047010.8,N
1499296975.8,286047007.8,N
1499296995.7,286047009.1,N
1499297015.5,286047008.5,N
1499297035.4,286047008.1,N
1499297055.2,286047009.1,N
1499297075.0,286047006.6,N
1499297075.9,286047006.6,N
1499297095.8,286047009.0,N
1499297115.6,286047006.1,N
1499297135.5,286047007.0,N
1499297155.3,286047006.2,N
1499297175.1,286047006.9,N
1499297195.9,286047006.8,N
1499297215.7,286047006.5,N
1499297235.6,286047006.1,N
1499297255.4,286047009.1,N
1499297275.2,286047006.5,N
1499297295.1,286047007.5,N
1499297296.0,286047007.5,N
1499297315.8,286047007.6,N
1499297335.7,286047006.3,N
1499297355.5,286047008.1,N
1499297375.3,286047008.1,N
1499297395.2,286047008.0,N
1499297415.9,286047006.7,N
1499297435.7,286047006.9,N
1499297455.6,286047007.4,N
1499297475.4,286047006.4,N
1499297495.3,286047008.8,N
1499297515.1,286047007.8,N
1499297516.0,286047007.8,N
1499297535.8,286047008.4,N
1499297555.7,286047008.7,N
1499297575.5,286047008.1,N
1499297595.3,286047008.4,N
1499297615.2,286047006.3,N
1499297635.0,286047007.7,N
1499297635.9,286047007.7,N
1499297655.8,286047006.4,N
1499297675.6,286047007.3,N
1499297695.4,286047008.9,N
1499297715.3,286047010.6,N
1499297735.1,286047008.7,N
1499297755.8,286047007.6,N
1499297775.7,286047004.8,N
1499297795.5,286047008.4,N
1499297815.4,286047007.9,N
1499297835.2,286047008.4,N
1499297855.0,286047008.0,N
1499297855.9,286047008.0,N
1499297875.8,286047008.4,N
1499297895.6,286047010.4,N
1499297915.5,286047008.4,N
1499297935.3,286047010.7,N
1499297955.1,286047006.2,N
1499297975.9,286047005.0,N
1499297995.7,286047007.0,N
1499298015.6,286047006.3,N
1499298035.4,286047007.3,N
1499298055.2,286047004.8,N
1499298075.1,286047006.1,N
1499298076.0,286047006.1,N
1499298095.8,286047006.7,N
1499298115.7,286047009.9,N
1499298135.5,286047011.9,N
1499298155.3,286047011.5,N
1499298175.2,286047011.9,N
1499298195.0,286047009.9,N
1499298195.9,286047009.9,N
1499298215.8,286047008.0,N
1499298235.6,286047012.3,N
1499298255.5,286047011.3,N
1499298275.3,286047012.2,N
1499298295.1,286047012.1,N
1499298315.9,286047009.5,N
1499298335.7,286047011.9,N
1499298355.5,286047012.2,N
1499298375.4,286047010.6,N
1499298395.2,286047008.3,N
1499298415.1,286047006.2,N
1499298416.0,286047006.2,N
1499298435.8,286047009.1,N
1499298455.6,286047008.2,N
1499298475.5,286047008.3,N
1499298495.3,286047009.0,N
1499298515.1,286047006.5,N
1499298535.9,286047006.6,N
1499298555.7,286047006.1,N
1499298575.6,286047008.0,N
1499298595.4,286047006.6,N
1499298615.2,286047004.5,N
1499298635.1,286047007.5,N
1499298636.0,286047007.5,N
1499298655.8,286047006.8,N
1499298675.7,286047006.8,N
1499298695.5,286047007.1,N
1499298715.3,286047006.5,N
1499298735.2,286047009.1,N
1499298755.0,286047006.6,N
1499298755.9,286047006.6,N
1499298775.7,286047006.3,N
1499298795.6,286047004.9,N
1499298815.4,286047005.2,N
1499298835.3,286047007.6,N
1499298855.1,286047007.3,N
1499298856.0,286047007.3,N
1499298875.8,286047004.9,N
1499298895.7,286047005.7,N
1499298915.5,286047005.6,N
1499298935.3,286047005.5,N
1499298955.2,286047004.8,N
1499298975.0,286047007.2,N
1499298975.9,286047007.2,N
1499298995.8,286047004.5,N
1499299015.6,286047006.0,N
1499299035.4,286047005.3,N
1499299055.3,286047004.5,N
1499299075.1,286047004.8,N
1499299095.9,286047005.0,N
1499299115.7,286047004.7,N
1499299135.5,286047005.9,N
1499299155.4,286047003.3,N
1499299175.2,286047004.4,N
1499299195.0,286047001.4,N
1499299195.9,286047001.4,N
